Wind_Speed
16 16 16 15 14 14 13 12 11 9 8 8 8 7 6 5 4 3 3 4 5 7 9 11 12 14 15 16 17 18 18 18 19 19 19 19 19 19 19 19 19 19 19 19
16 16 16 15 14 14 14 13 11 10 10 10 10 9 7 6 5 4 5 6 7 9 10 12 13 14 16 17 18 18 19 19 19 19 19 19 19 19 19 19 19 19 19 19
17 18 17 14 14 15 15 13 12 11 10 11 10 9 8 6 6 7 7 8 9 10 11 12 13 15 16 17 18 19 19 20 20 20 20 20 20 19 19 19 19 19 19 19
19 20 18 13 17 17 16 15 13 12 11 10 10 9 8 8 8 9 9 10 11 12 12 13 14 15 16 18 19 19 20 21 21 21 21 21 21 21 20 20 20 20 20 20
21 21 18 16 17 17 17 16 15 14 13 12 11 11 10 10 10 11 11 12 13 13 14 14 15 16 17 18 19 20 21 22 23 23 23 23 22 22 22 21 21 21 21 21
22 23 20 16 19 20 19 17 17 16 15 14 13 13 13 12 12 13 13 14 14 14 15 15 16 17 18 20 21 22 24 25 25 25 25 25 24 24 23 23 22 22 22 21
23 24 20 18 20 21 20 18 19 17 16 15 14 15 15 15 14 14 15 15 15 15 16 16 17 19 20 22 23 25 26 27 28 28 27 27 26 26 25 24 23 23 23 22
24 24 19 20 22 22 21 20 20 19 18 18 17 18 17 17 17 17 17 17 16 17 17 18 19 21 22 24 26 27 28 29 30 29 29 28 28 27 26 25 25 24 23 23
26 24 22 23 22 22 22 22 21 21 21 20 20 20 19 19 19 18 18 18 18 18 19 20 21 23 24 26 28 29 30 31 31 31 30 29 29 28 28 27 26 25 24 24
27 25 25 24 24 23 24 23 23 23 22 22 21 21 21 20 20 19 19 19 19 19 20 21 23 25 26 27 29 30 32 32 32 32 31 30 29 28 28 27 26 25 25 24
28 27 28 27 26 26 25 25 24 24 23 23 22 22 22 21 21 21 21 21 21 21 22 24 25 26 28 29 30 32 33 33 33 32 32 31 30 28 27 26 26 25 25 24
31 30 30 29 28 28 27 26 25 25 25 24 23 23 23 23 22 23 23 23 23 24 24 26 27 28 30 31 32 34 34 35 34 34 33 31 29 29 28 27 26 26 25 24
35 34 34 32 30 29 28 27 27 27 26 26 25 24 24 24 24 24 25 25 25 26 27 28 29 31 32 33 34 35 36 36 36 34 33 31 30 29 29 29 28 27 27 26
40 39 38 36 34 32 31 30 30 29 28 27 27 26 26 26 26 26 27 27 27 28 29 30 31 33 34 35 36 37 37 37 36 35 34 32 31 30 29 29 30 30 30 29
44 44 42 40 38 36 35 33 32 31 31 30 29 29 28 28 29 29 29 30 30 31 32 33 34 35 36 36 37 38 38 38 37 36 35 34 33 32 31 30 30 30 31 32
47 47 47 45 43 41 39 37 36 35 34 34 33 32 32 32 32 32 32 33 33 33 34 35 36 37 38 39 39 40 40 40 39 38 37 36 35 34 33 33 32 32 32 32
52 50 50 49 47 45 43 42 41 40 39 38 36 36 36 36 36 36 36 36 36 37 37 38 39 39 40 41 41 42 42 41 40 39 38 37 36 36 35 35 35 34 34 34
54 53 51 51 49 48 47 46 45 44 42 41 40 40 40 40 40 40 40 40 40 40 40 41 41 42 43 43 43 44 43 43 42 41 40 39 38 37 37 37 36 36 36 36
54 54 53 52 51 50 49 48 48 47 46 45 44 43 43 44 44 43 43 43 43 43 43 44 44 45 45 46 46 46 45 44 43 42 41 40 39 39 38 38 38 38 38 39
52 53 54 54 53 52 51 51 50 50 49 48 47 47 47 47 47 47 47 47 46 46 47 47 47 48 48 48 48 47 46 45 43 42 41 40 39 39 39 39 39 40 40 41
50 51 51 53 53 53 53 52 52 51 51 51 51 51 51 51 50 50 50 50 49 50 50 50 50 50 50 50 49 47 46 44 43 41 40 39 39 39 39 40 41 42 42 43
46 47 49 50 51 52 53 53 54 53 53 53 53 53 53 52 52 52 52 52 52 52 52 52 52 52 51 50 48 46 45 43 41 40 39 39 39 40 41 42 43 44 45 46
44 44 46 47 48 50 51 53 54 54 54 54 55 55 55 54 54 53 53 53 53 53 53 53 52 51 50 48 46 44 42 41 40 39 39 40 41 42 43 44 45 46 47 48
44 44 43 45 46 47 49 51 52 53 54 54 55 54 54 54 54 54 54 54 53 53 53 52 51 49 47 45 43 42 41 40 40 40 41 42 43 44 45 46 47 48 50 51
40 42 43 43 45 47 47 48 49 50 51 52 52 52 53 53 53 53 53 52 52 51 51 49 48 45 44 42 41 40 40 40 40 41 42 43 44 45 46 48 49 50 52 54
38 39 40 41 42 44 45 47 47 48 48 49 49 50 50 50 50 50 50 49 49 48 47 45 43 42 41 40 40 40 40 41 42 43 44 44 45 46 48 49 51 52 55 57
37 38 39 39 40 41 42 44 45 45 45 46 46 46 46 46 46 46 45 45 45 44 43 42 41 40 40 40 40 41 41 42 42 43 44 45 46 47 49 50 53 55 57 60
Wind_Direction
241 238 236 233 230 228 225 223 219 210 198 196 199 197 195 194 203 232 271 296 312 322 328 332 336 338 341 343 344 346 347 348 349 349 349 349 350 350 350 351 352 352 352 352
240 240 237 230 229 228 226 224 220 208 190 195 198 200 204 210 225 253 275 290 303 314 321 326 331 335 337 339 341 343 344 345 346 346 345 345 345 345 345 346 347 348 349 349
238 236 234 223 226 228 225 223 219 210 202 200 201 205 213 226 244 262 275 286 297 305 313 320 325 330 334 336 337 339 340 340 341 341 341 340 340 340 340 340 341 342 344 345
237 236 233 222 226 225 223 222 220 216 215 214 216 220 230 243 255 265 276 285 294 300 307 314 320 325 328 331 334 335 336 337 337 337 335 334 334 334 334 334 334 335 336 337
236 238 232 227 231 233 230 225 226 223 224 228 232 238 244 252 259 267 276 285 292 297 303 309 315 320 324 327 329 331 332 333 332 331 330 329 329 329 329 328 328 328 329 329
236 237 232 223 231 234 233 229 231 231 231 233 239 247 252 256 263 269 276 284 289 294 299 305 311 316 320 323 325 327 329 329 328 326 325 324 324 323 322 322 322 323 323 324
238 238 232 226 232 235 237 233 234 237 238 240 244 250 256 261 266 271 276 282 287 292 296 302 308 313 317 319 322 324 326 327 325 323 322 321 320 319 317 317 317 318 318 319
239 239 233 232 232 235 237 237 239 241 244 246 248 252 257 262 267 271 275 280 285 290 294 300 305 310 314 317 320 321 323 324 324 322 321 320 318 316 314 313 313 314 315 315
239 239 236 237 236 236 237 238 241 243 246 248 252 255 259 262 266 270 274 279 283 288 292 297 302 307 311 315 318 320 321 322 322 321 320 319 316 314 312 310 310 310 312 312
239 238 238 239 240 241 241 241 242 244 247 250 252 256 259 262 266 270 274 277 282 286 290 295 299 303 308 312 315 317 318 319 319 319 318 317 315 313 310 308 308 308 309 310
242 240 239 239 241 243 244 245 246 247 250 252 254 257 259 263 266 270 273 276 280 284 288 292 297 301 304 308 311 314 316 317 317 316 315 314 313 311 309 307 306 306 307 308
242 242 242 240 240 243 246 248 249 251 253 255 256 258 260 263 266 268 271 275 278 282 286 290 295 298 302 305 308 311 313 315 315 313 312 311 310 308 307 306 305 305 305 306
243 243 244 243 242 244 247 249 251 253 254 256 256 257 260 262 265 267 270 273 276 281 285 289 293 297 300 303 306 309 311 312 313 312 310 309 307 306 305 305 304 304 304 304
243 244 244 245 245 245 247 249 251 253 255 256 257 258 259 261 263 266 269 272 276 280 284 288 292 295 298 302 305 307 309 310 311 310 308 306 305 304 303 302 303 303 303 303
241 243 245 245 245 245 246 248 250 252 254 256 257 258 259 261 263 266 269 273 277 280 284 287 290 294 297 300 303 305 306 308 309 308 306 304 303 302 301 300 300 300 301 301
239 241 243 244 245 246 247 248 250 251 252 254 256 258 260 262 264 267 270 273 276 280 283 286 289 292 295 298 301 303 304 305 306 305 303 302 301 300 299 299 298 298 298 299
240 240 242 243 244 246 247 248 249 250 251 253 255 257 259 262 264 267 270 273 276 279 282 285 288 291 294 297 299 301 302 302 303 302 300 299 299 298 298 297 297 297 297 297
242 241 241 242 243 245 246 247 249 250 252 253 255 257 259 261 264 266 269 272 275 278 281 284 287 290 293 295 298 299 300 300 300 299 298 297 297 296 296 296 296 296 297 297
244 243 242 242 243 244 245 247 248 250 252 254 255 257 259 261 263 266 269 272 275 278 281 284 287 289 292 294 296 298 298 298 297 297 296 296 295 294 294 294 295 295 296 297
243 243 243 243 243 243 244 246 248 249 251 253 255 257 259 261 263 266 269 272 275 278 280 283 286 289 291 293 295 295 296 296 295 295 294 294 293 293 293 294 295 296 296 296
244 242 243 243 243 243 244 245 247 249 250 252 254 256 258 260 263 266 269 272 274 277 280 283 285 288 290 291 293 293 293 293 293 293 292 292 292 292 293 294 295 296 296 296
243 243 242 242 243 243 243 244 245 247 249 251 253 255 258 260 263 265 268 271 273 276 279 282 284 287 288 290 290 291 291 291 291 290 290 290 291 292 293 294 295 296 297 297
241 242 242 242 242 242 242 243 245 246 248 250 252 254 257 259 262 265 267 270 272 275 278 281 283 285 286 287 287 288 288 288 288 288 289 290 291 292 293 295 296 297 298 298
239 239 241 242 242 243 243 243 244 246 247 249 251 254 256 259 261 263 266 269 272 274 277 279 281 282 283 283 284 285 286 286 287 288 289 290 292 293 294 295 297 298 299 300
241 241 241 242 242 242 243 244 246 247 248 250 252 254 256 258 260 262 265 267 270 272 275 277 278 279 279 281 282 283 284 285 286 287 289 291 292 294 295 297 298 299 300 301
242 241 241 242 243 244 245 246 247 248 249 251 253 254 256 257 259 261 263 265 268 270 271 273 274 275 277 278 280 281 283 285 287 288 290 292 293 295 296 298 299 301 302 303
244 243 243 244 245 245 246 246 247 248 249 250 252 253 255 256 258 259 261 263 264 266 268 270 271 273 275 277 279 281 284 286 288 289 291 292 294 296 298 299 301 302 304 305
Height
5828 5829 5830 5832 5832 5833 5834 5835 5836 5838 5838 5840 5841 5841 5842 5843 5843 5843 5842 5842 5841 5840 5838 5836 5834 5831 5828 5825 5822 5819 5815 5812 5809 5805 5802 5799 5795 5792 5789 5785 5782 5778 5775 5771
5825 5826 5826 5828 5830 5831 5831 5832 5834 5835 5837 5838 5839 5840 5840 5841 5841 5841 5841 5840 5839 5838 5836 5834 5832 5829 5826 5823 5820 5817 5814 5810 5807 5804 5801 5797 5794 5790 5787 5784 5780 5777 5773 5769
5822 5822 5823 5826 5828 5828 5829 5830 5831 5833 5835 5835 5837 5837 5838 5838 5839 5839 5838 5838 5836 5835 5833 5831 5829 5827 5824 5821 5818 5815 5812 5809 5805 5802 5799 5795 5792 5788 5785 5781 5778 5775 5771 5767
5818 5820 5820 5826 5824 5825 5826 5828 5829 5830 5831 5833 5834 5834 5835 5836 5836 5836 5835 5835 5833 5832 5830 5828 5826 5824 5821 5819 5816 5812 5809 5806 5803 5799 5796 5793 5789 5786 5782 5779 5775 5772 5768 5765
5814 5815 5817 5821 5822 5822 5824 5825 5826 5827 5829 5829 5830 5831 5832 5832 5832 5832 5832 5831 5830 5828 5827 5825 5823 5821 5818 5816 5813 5810 5807 5803 5800 5796 5793 5789 5786 5782 5779 5775 5772 5769 5765 5762
5810 5810 5813 5819 5818 5818 5821 5822 5823 5824 5825 5826 5827 5828 5828 5828 5828 5828 5828 5827 5826 5824 5823 5821 5819 5817 5815 5812 5809 5806 5803 5799 5796 5792 5789 5785 5781 5778 5775 5771 5768 5765 5762 5758
5804 5805 5809 5813 5813 5814 5817 5820 5819 5820 5821 5822 5823 5824 5824 5823 5823 5823 5823 5822 5821 5820 5818 5817 5815 5812 5810 5807 5805 5802 5798 5795 5791 5787 5783 5780 5776 5773 5770 5766 5763 5760 5757 5754
5799 5800 5807 5807 5808 5810 5812 5813 5814 5815 5816 5817 5818 5818 5818 5819 5818 5818 5818 5817 5816 5815 5814 5812 5810 5808 5805 5802 5800 5796 5793 5789 5785 5781 5777 5774 5770 5767 5764 5761 5758 5755 5752 5749
5794 5798 5799 5800 5802 5803 5805 5807 5808 5809 5810 5811 5812 5812 5813 5813 5813 5813 5812 5812 5811 5810 5808 5807 5805 5803 5800 5797 5794 5791 5787 5783 5779 5775 5771 5768 5764 5761 5757 5754 5752 5749 5746 5744
5787 5790 5792 5793 5795 5796 5798 5800 5802 5803 5804 5805 5806 5806 5806 5807 5807 5806 5806 5806 5805 5804 5803 5801 5799 5797 5794 5792 5789 5785 5782 5778 5774 5770 5766 5762 5758 5754 5751 5748 5745 5743 5740 5738
5779 5782 5784 5786 5787 5789 5791 5792 5794 5796 5797 5798 5799 5799 5799 5800 5800 5800 5799 5799 5798 5797 5796 5795 5793 5791 5788 5786 5783 5779 5776 5772 5768 5764 5760 5756 5752 5748 5745 5742 5739 5737 5734 5732
5770 5773 5774 5777 5779 5780 5782 5784 5786 5787 5789 5790 5791 5791 5792 5792 5792 5792 5792 5792 5791 5790 5789 5788 5786 5784 5782 5779 5776 5772 5769 5765 5761 5757 5753 5749 5745 5742 5738 5736 5733 5730 5728 5726
5760 5762 5763 5767 5769 5771 5773 5775 5777 5778 5780 5781 5782 5783 5784 5784 5784 5784 5784 5784 5784 5783 5782 5780 5778 5776 5774 5771 5768 5765 5761 5757 5753 5749 5745 5742 5739 5735 5731 5728 5725 5723 5721 5718
5749 5750 5752 5756 5759 5762 5764 5765 5767 5769 5771 5772 5773 5774 5775 5775 5776 5776 5776 5776 5775 5775 5773 5772 5770 5768 5765 5763 5760 5756 5753 5749 5745 5741 5737 5734 5731 5728 5725 5722 5718 5715 5712 5710
5737 5738 5741 5744 5747 5750 5753 5755 5757 5759 5761 5762 5763 5764 5765 5766 5767 5767 5767 5767 5766 5765 5764 5763 5761 5759 5756 5754 5751 5747 5744 5740 5737 5733 5729 5726 5723 5720 5717 5714 5711 5708 5705 5701
5722 5724 5727 5730 5735 5738 5741 5744 5746 5748 5750 5752 5753 5754 5755 5756 5756 5757 5757 5757 5756 5755 5754 5753 5751 5749 5746 5744 5741 5738 5734 5731 5727 5724 5720 5717 5714 5711 5708 5705 5703 5700 5697 5694
5704 5709 5714 5717 5722 5725 5729 5732 5734 5736 5738 5740 5742 5743 5744 5745 5745 5746 5746 5746 5745 5745 5744 5742 5740 5738 5736 5733 5731 5727 5724 5721 5717 5714 5710 5707 5704 5701 5698 5695 5693 5690 5687 5684
5689 5694 5698 5703 5707 5711 5715 5718 5720 5723 5726 5728 5729 5731 5732 5733 5733 5734 5734 5734 5734 5733 5732 5731 5729 5727 5725 5722 5719 5716 5713 5710 5706 5703 5700 5697 5694 5691 5688 5685 5682 5679 5676 5673
5672 5678 5683 5687 5692 5696 5700 5703 5706 5709 5711 5714 5716 5718 5719 5720 5720 5721 5721 5722 5721 5721 5720 5718 5717 5715 5713 5710 5707 5704 5701 5698 5695 5691 5688 5685 5682 5680 5677 5674 5671 5668 5665 5661
5654 5660 5665 5670 5675 5680 5684 5688 5691 5694 5697 5699 5701 5703 5704 5706 5707 5707 5708 5708 5708 5708 5707 5705 5704 5702 5700 5697 5694 5691 5688 5685 5682 5679 5676 5673 5671 5668 5665 5662 5659 5656 5653 5650
5637 5642 5648 5653 5658 5663 5668 5672 5675 5678 5681 5684 5686 5688 5689 5691 5692 5693 5694 5694 5694 5694 5693 5691 5690 5688 5686 5683 5681 5678 5675 5672 5670 5667 5664 5662 5659 5656 5653 5650 5647 5644 5640 5637
5621 5626 5631 5636 5641 5646 5651 5655 5659 5662 5665 5668 5670 5672 5674 5676 5677 5678 5679 5679 5679 5679 5678 5677 5675 5674 5671 5669 5667 5664 5662 5659 5657 5654 5652 5650 5647 5644 5641 5638 5634 5631 5627 5623
5606 5610 5615 5619 5624 5629 5633 5638 5642 5645 5648 5651 5654 5656 5658 5660 5662 5663 5663 5664 5664 5663 5663 5662 5660 5659 5657 5655 5653 5651 5649 5646 5644 5642 5640 5637 5634 5631 5628 5625 5621 5617 5612 5608
5591 5595 5600 5604 5608 5612 5617 5621 5624 5628 5631 5635 5637 5640 5642 5644 5646 5647 5647 5648 5648 5648 5647 5646 5645 5644 5642 5641 5639 5638 5636 5634 5632 5630 5627 5624 5621 5618 5614 5611 5607 5602 5597 5592
5577 5581 5585 5589 5593 5597 5601 5604 5608 5611 5615 5618 5621 5623 5626 5628 5629 5630 5631 5632 5632 5632 5632 5631 5630 5630 5629 5627 5626 5625 5623 5621 5619 5617 5614 5611 5608 5604 5600 5596 5591 5587 5581 5576
5564 5567 5571 5575 5579 5582 5586 5589 5592 5596 5599 5602 5605 5607 5609 5611 5613 5615 5616 5616 5617 5617 5617 5617 5617 5616 5615 5614 5613 5612 5610 5608 5606 5603 5601 5597 5594 5590 5586 5581 5576 5571 5565 5559
5552 5555 5558 5562 5565 5568 5571 5574 5578 5581 5584 5587 5590 5592 5594 5596 5598 5600 5601 5602 5603 5603 5604 5604 5603 5603 5602 5602 5600 5599 5597 5595 5592 5590 5587 5583 5579 5575 5571 5566 5561 5555 5548 5542